YAOGAN-30 C

Satellite information

Favourite Embed

Satellite Type and Status

PAYLOADIN ORBIT

Key statistics

Satellite YAOGAN-30 C at a glance.

Uptime

2781

Days in orbit

Revolutions

≈ 15.0

Per day

Orbit

LEO

Low Earth Orbit

Inclination

35.0

Latest

Satellite identification and parameters

Extended collection of information and parameters for YAOGAN-30 C.

Object identification

Identified? True

Debris? False

Object name: YAOGAN-30 C

International designator: 2017-058C

Object number (NORAD): 42947

Object ID (CCSDS): 42947

Country: PEOPLES REPUBLIC OF CHINA (PRC)

Current information (Y/N): Y

RCS size: LARGE

Orbital parameters

Period: 95.93 minutes

Inclination: 34.9974 deg

SMA: 6941.635 km

Apoapsis: 567.838 km

Periapsis: 559.162 km

RAAN: 312.7496 deg

Eccentricy: 0.0006249

Argument of periapsis: 285.374 deg

Mean anomaly: 74.6277 deg

Mean motion: 15.01101594 rev/day

Mean motion (dot): 0.0000411 rev/day2

B* drag term: 0.00031668 1/REarth

Two-line elements (TLE)

Creation date: May 11, 2025, 2:40 a.m.

Reference frame: TEME

Reference center: EARTH

Epoch: May 10, 2025, 10:31 p.m. UTC

TLE line 0: 0 YAOGAN-30 C

TLE line 1: 1 42947U 17058C 25130.93876584 .00004110 00000-0 31668-3 0 9991

TLE line 2: 2 42947 34.9974 312.7496 0006249 285.3740 74.6277 15.01101594415275

Live tracking on map

Real-time ground track for satellite YAOGAN-30 C.

In-orbit conjunctions

There are no conjunctions computed for YAOGAN-30 C, at the moment. Check back to stay up to date, as we update our databases every day.

Go to all conjunctions

Associated space launch

YAOGAN-30 C was lifted into orbit during the mission ‘Long March 2C | 3 x Yaogan-30-01’, on board a Long March 2 space rocket.

The launch took place on Sept. 29, 2017, 4:21 a.m. from Launch Complex 3 (LC-3/LA-1).

For more information about the launch, click the button.

Launch to space Long March 2C | 3 x Yaogan-30-01
Long March 2C | 3 x Yaogan-30-01

Agency: N/A

Status: Launch Successful

Launch date: Sept. 29, 2017, 4:21 a.m. UTC

Rocket: Long March 2

Launch pad: Launch Complex 3 (LC-3/LA-1)

Location: Xichang Satellite Launch Center, People's Republic of China

...

Latest news about this satellite

There are no fresh news available about this satellite. Check back as we update our databases every day.


Newsletter sign-up

Weekly statistics, charts and insights to help you stay on top of the space industry.